Year,Month,Day,Hour,Minute,Value (Times are PST for temperature in C)
2013,05,05,01,13,11.30
2013,05,05,01,14,11.30
2013,05,05,01,15,11.30
2013,05,05,01,16,11.30
2013,05,05,01,17,11.30
2013,05,05,01,18,11.30
2013,05,05,01,19,11.30
2013,05,05,01,20,11.30
2013,05,05,01,21,11.30
2013,05,05,01,22,11.30
2013,05,05,01,23,11.30
2013,05,05,01,24,11.30
2013,05,05,01,25,11.30
2013,05,05,01,26,11.30
2013,05,05,01,27,11.30
2013,05,05,01,28,10.80
2013,05,05,01,29,10.80
2013,05,05,01,30,10.80
2013,05,05,01,31,10.80
2013,05,05,01,32,10.80
2013,05,05,01,33,10.80
2013,05,05,01,34,10.80
2013,05,05,01,35,10.80
2013,05,05,01,36,10.80
2013,05,05,01,37,10.80
2013,05,05,01,38,10.80
2013,05,05,01,39,10.80
2013,05,05,01,40,10.80
2013,05,05,01,41,10.80
2013,05,05,01,42,10.80
2013,05,05,01,43,10.70
2013,05,05,01,44,10.70
2013,05,05,01,45,10.70
2013,05,05,01,46,10.70
2013,05,05,01,47,10.70
2013,05,05,01,48,10.70
2013,05,05,01,49,10.70
2013,05,05,01,50,10.70
2013,05,05,01,51,10.70
2013,05,05,01,52,10.70
2013,05,05,01,53,10.70
2013,05,05,01,54,10.70
2013,05,05,01,55,10.70
2013,05,05,01,56,10.70
2013,05,05,01,57,10.70
2013,05,05,01,58,10.40
2013,05,05,01,59,10.40
2013,05,05,02,00,10.40
2013,05,05,02,01,10.40
2013,05,05,02,02,10.40
2013,05,05,02,03,10.40
2013,05,05,02,04,10.40
2013,05,05,02,05,10.40
2013,05,05,02,06,10.40
2013,05,05,02,07,10.40
2013,05,05,02,08,10.40
2013,05,05,02,09,10.40
2013,05,05,02,10,10.40
2013,05,05,02,11,10.40
2013,05,05,02,12,10.40
2013,05,05,02,13,10.20
2013,05,05,02,14,10.20
2013,05,05,02,15,10.20
2013,05,05,02,16,10.20
2013,05,05,02,17,10.20
2013,05,05,02,18,10.20
2013,05,05,02,19,10.20
2013,05,05,02,20,10.20
2013,05,05,02,21,10.20
2013,05,05,02,22,10.20
2013,05,05,02,23,10.20
2013,05,05,02,24,10.20
2013,05,05,02,25,10.20
2013,05,05,02,26,10.20
2013,05,05,02,27,10.20
2013,05,05,02,28,11.30
2013,05,05,02,29,11.30
2013,05,05,02,30,11.30
2013,05,05,02,31,11.30
2013,05,05,02,32,11.30
2013,05,05,02,33,11.30
2013,05,05,02,34,11.30
2013,05,05,02,35,11.30
2013,05,05,02,36,11.30
2013,05,05,02,37,11.30
2013,05,05,02,38,11.30
2013,05,05,02,39,11.30
2013,05,05,02,40,11.30
2013,05,05,02,41,11.30
2013,05,05,02,42,11.30
2013,05,05,02,43,12.30
2013,05,05,02,44,12.30
2013,05,05,02,45,12.30
2013,05,05,02,46,12.30
2013,05,05,02,47,12.30
2013,05,05,02,48,12.30
2013,05,05,02,49,12.30
2013,05,05,02,50,12.30
2013,05,05,02,51,12.30
2013,05,05,02,52,12.30
2013,05,05,02,53,12.30
2013,05,05,02,54,12.30
2013,05,05,02,55,12.30
2013,05,05,02,56,12.30
2013,05,05,02,57,12.30
2013,05,05,02,58,12.60
2013,05,05,02,59,12.60
2013,05,05,03,00,12.60
2013,05,05,03,01,12.60
2013,05,05,03,02,12.60
2013,05,05,03,03,12.60
2013,05,05,03,04,12.60
2013,05,05,03,05,12.60
2013,05,05,03,06,12.60
2013,05,05,03,07,12.60
2013,05,05,03,08,12.60
2013,05,05,03,09,12.60
2013,05,05,03,10,12.60
2013,05,05,03,11,12.60
2013,05,05,03,12,12.60
2013,05,05,03,13,13.60
2013,05,05,03,14,13.60
2013,05,05,03,15,13.60
2013,05,05,03,16,13.60
2013,05,05,03,17,13.60
2013,05,05,03,18,13.60
2013,05,05,03,19,13.60
2013,05,05,03,20,13.60
2013,05,05,03,21,13.60
2013,05,05,03,22,13.60
2013,05,05,03,23,13.60
2013,05,05,03,24,13.60
2013,05,05,03,25,13.60
2013,05,05,03,26,13.60
2013,05,05,03,27,13.60
2013,05,05,03,28,12.10
2013,05,05,03,29,12.10
2013,05,05,03,30,12.10
2013,05,05,03,31,12.10
2013,05,05,03,32,12.10
2013,05,05,03,33,12.10
2013,05,05,03,34,12.10
2013,05,05,03,35,12.10
2013,05,05,03,36,12.10
2013,05,05,03,37,12.10
2013,05,05,03,38,12.10
2013,05,05,03,39,12.10
2013,05,05,03,40,12.10
2013,05,05,03,41,12.10
2013,05,05,03,42,12.10
2013,05,05,03,43,11.60
2013,05,05,03,44,11.60
2013,05,05,03,45,11.60
2013,05,05,03,46,11.60
2013,05,05,03,47,11.60
2013,05,05,03,48,11.60
2013,05,05,03,49,11.60
2013,05,05,03,50,11.60
2013,05,05,03,51,11.60
2013,05,05,03,52,11.60
2013,05,05,03,53,11.60
2013,05,05,03,54,11.60
2013,05,05,03,55,11.60
2013,05,05,03,56,11.60
2013,05,05,03,57,11.60
2013,05,05,03,58,11.20
2013,05,05,03,59,11.20
2013,05,05,04,00,11.20
2013,05,05,04,01,11.20
2013,05,05,04,02,11.20
2013,05,05,04,03,11.20
2013,05,05,04,04,11.20
2013,05,05,04,05,11.20
2013,05,05,04,06,11.20
2013,05,05,04,07,11.20
2013,05,05,04,08,11.20
2013,05,05,04,09,11.20
2013,05,05,04,10,11.20
2013,05,05,04,11,11.20
2013,05,05,04,12,11.20
2013,05,05,04,13,11.00
2013,05,05,04,14,11.00
2013,05,05,04,15,11.00
2013,05,05,04,16,11.00
2013,05,05,04,17,11.00
2013,05,05,04,18,11.00
2013,05,05,04,19,11.00
2013,05,05,04,20,11.00
2013,05,05,04,21,11.00
2013,05,05,04,22,11.00
2013,05,05,04,23,11.00
2013,05,05,04,24,11.00
2013,05,05,04,25,11.00
2013,05,05,04,26,11.00
2013,05,05,04,27,11.00
2013,05,05,04,28,11.00
2013,05,05,04,29,11.00
2013,05,05,04,30,11.00
2013,05,05,04,31,11.00
2013,05,05,04,32,11.00
2013,05,05,04,33,11.00
2013,05,05,04,34,11.00
2013,05,05,04,35,11.00
2013,05,05,04,36,11.00
2013,05,05,04,37,11.00
2013,05,05,04,38,11.00
2013,05,05,04,39,11.00
2013,05,05,04,40,11.00
2013,05,05,04,41,11.00
2013,05,05,04,42,11.00
2013,05,05,04,43,11.40
2013,05,05,04,44,11.40
2013,05,05,04,45,11.40
2013,05,05,04,46,11.40
2013,05,05,04,47,11.40
2013,05,05,04,48,11.40
2013,05,05,04,49,11.40
2013,05,05,04,50,11.40
2013,05,05,04,51,11.40
2013,05,05,04,52,11.40
2013,05,05,04,53,11.40
2013,05,05,04,54,11.40
2013,05,05,04,55,11.40
2013,05,05,04,56,11.40
2013,05,05,04,57,11.40
2013,05,05,04,58,13.30
2013,05,05,04,59,13.30
2013,05,05,05,00,13.30
2013,05,05,05,01,13.30
2013,05,05,05,02,13.30
2013,05,05,05,03,13.30
2013,05,05,05,04,13.30
2013,05,05,05,05,13.30
2013,05,05,05,06,13.30
2013,05,05,05,07,13.30
2013,05,05,05,08,13.30
2013,05,05,05,09,13.30
2013,05,05,05,10,13.30
2013,05,05,05,11,13.30
2013,05,05,05,12,13.30
2013,05,05,05,13,12.70
2013,05,05,05,14,12.70
2013,05,05,05,15,12.70
2013,05,05,05,16,12.70
2013,05,05,05,17,12.70
2013,05,05,05,18,12.70
2013,05,05,05,19,12.70
2013,05,05,05,20,12.70
2013,05,05,05,21,12.70
2013,05,05,05,22,12.70
2013,05,05,05,23,12.70
2013,05,05,05,24,12.70
2013,05,05,05,25,12.70
2013,05,05,05,26,12.70
2013,05,05,05,27,12.70
2013,05,05,05,28,12.30
2013,05,05,05,29,12.30
2013,05,05,05,30,12.30
2013,05,05,05,31,12.30
2013,05,05,05,32,12.30
2013,05,05,05,33,12.30
2013,05,05,05,34,12.30
2013,05,05,05,35,12.30
2013,05,05,05,36,12.30
2013,05,05,05,37,12.30
2013,05,05,05,38,12.30
2013,05,05,05,39,12.30
2013,05,05,05,40,12.30
2013,05,05,05,41,12.30
2013,05,05,05,42,12.30
2013,05,05,05,43,12.20
2013,05,05,05,44,12.20
2013,05,05,05,45,12.20
2013,05,05,05,46,12.20
2013,05,05,05,47,12.20
2013,05,05,05,48,12.20
2013,05,05,05,49,12.20
2013,05,05,05,50,12.20
2013,05,05,05,51,12.20
2013,05,05,05,52,12.20
2013,05,05,05,53,12.20
2013,05,05,05,54,12.20
2013,05,05,05,55,12.20
2013,05,05,05,56,12.20
2013,05,05,05,57,12.20
2013,05,05,05,58,11.30
2013,05,05,05,59,11.30
2013,05,05,06,00,11.30
2013,05,05,06,01,11.30
2013,05,05,06,02,11.30
2013,05,05,06,03,11.30
2013,05,05,06,04,11.30
2013,05,05,06,05,11.30
2013,05,05,06,06,11.30
2013,05,05,06,07,11.30
2013,05,05,06,08,11.30
2013,05,05,06,09,11.30
2013,05,05,06,10,11.30
2013,05,05,06,11,11.30
2013,05,05,06,12,11.30
2013,05,05,06,13,11.20
2013,05,05,06,14,11.20
2013,05,05,06,15,11.20
2013,05,05,06,16,11.20
2013,05,05,06,17,11.20
2013,05,05,06,18,11.20
2013,05,05,06,19,11.20
2013,05,05,06,20,11.20
2013,05,05,06,21,11.20
2013,05,05,06,22,11.20
2013,05,05,06,23,11.20
2013,05,05,06,24,11.20
2013,05,05,06,25,11.20
2013,05,05,06,26,11.20
2013,05,05,06,27,11.20
2013,05,05,06,28,11.60
2013,05,05,06,29,11.60
2013,05,05,06,30,11.60
2013,05,05,06,31,11.60
2013,05,05,06,32,11.60
2013,05,05,06,33,11.60
2013,05,05,06,34,11.60
2013,05,05,06,35,11.60
2013,05,05,06,36,11.60
2013,05,05,06,37,11.60
2013,05,05,06,38,11.60
2013,05,05,06,39,11.60
2013,05,05,06,40,11.60
2013,05,05,06,41,11.60
2013,05,05,06,42,11.60
2013,05,05,06,43,11.80
2013,05,05,06,44,11.80
2013,05,05,06,45,11.80
2013,05,05,06,46,11.80
2013,05,05,06,47,11.80
2013,05,05,06,48,11.80
2013,05,05,06,49,11.80
2013,05,05,06,50,11.80
2013,05,05,06,51,11.80
2013,05,05,06,52,11.80
2013,05,05,06,53,11.80
2013,05,05,06,54,11.80
2013,05,05,06,55,11.80
2013,05,05,06,56,11.80
2013,05,05,06,57,11.80
2013,05,05,06,58,11.70
2013,05,05,06,59,11.70
2013,05,05,07,00,11.70
2013,05,05,07,01,11.70
2013,05,05,07,02,11.70
2013,05,05,07,03,11.70
2013,05,05,07,04,11.70
2013,05,05,07,05,11.70
2013,05,05,07,06,11.70
2013,05,05,07,07,11.70
2013,05,05,07,08,11.70
2013,05,05,07,09,11.70
2013,05,05,07,10,11.70
2013,05,05,07,11,11.70
2013,05,05,07,12,11.70
2013,05,05,07,13,11.70
2013,05,05,07,14,11.70
2013,05,05,07,15,11.70
2013,05,05,07,16,11.70
2013,05,05,07,17,11.70
2013,05,05,07,18,11.70
2013,05,05,07,19,11.70
2013,05,05,07,20,11.70
2013,05,05,07,21,11.70
2013,05,05,07,22,11.70
2013,05,05,07,23,11.70
2013,05,05,07,24,11.70
2013,05,05,07,25,11.70
2013,05,05,07,26,11.70
2013,05,05,07,27,11.70
2013,05,05,07,28,11.20
2013,05,05,07,29,11.20
2013,05,05,07,30,11.20
2013,05,05,07,31,11.20
2013,05,05,07,32,11.20
2013,05,05,07,33,11.20
2013,05,05,07,34,11.20
2013,05,05,07,35,11.20
2013,05,05,07,36,11.20
2013,05,05,07,37,11.20
2013,05,05,07,38,11.20
2013,05,05,07,39,11.20
2013,05,05,07,40,11.20
2013,05,05,07,41,11.20
2013,05,05,07,42,11.20
2013,05,05,07,43,11.20
2013,05,05,07,44,11.20
2013,05,05,07,45,11.20
2013,05,05,07,46,11.20
2013,05,05,07,47,11.20
2013,05,05,07,48,11.20
2013,05,05,07,49,11.20
2013,05,05,07,50,11.20
2013,05,05,07,51,11.20
2013,05,05,07,52,11.20
2013,05,05,07,53,11.20
2013,05,05,07,54,11.20
2013,05,05,07,55,11.20
2013,05,05,07,56,11.20
2013,05,05,07,57,11.20
2013,05,05,07,58,11.20
2013,05,05,07,59,11.20
2013,05,05,08,00,11.20
2013,05,05,08,01,11.20
2013,05,05,08,02,11.20
2013,05,05,08,03,11.20
2013,05,05,08,04,11.20
2013,05,05,08,05,11.20
2013,05,05,08,06,11.20
2013,05,05,08,07,11.20
2013,05,05,08,08,11.20
2013,05,05,08,09,11.20
2013,05,05,08,10,11.20
2013,05,05,08,11,11.20
2013,05,05,08,12,11.20
2013,05,05,08,13,11.30
2013,05,05,08,14,11.30
2013,05,05,08,15,11.30
2013,05,05,08,16,11.30
2013,05,05,08,17,11.30
2013,05,05,08,18,11.30
2013,05,05,08,19,11.30
2013,05,05,08,20,11.30
2013,05,05,08,21,11.30
2013,05,05,08,22,11.30
2013,05,05,08,23,11.30
2013,05,05,08,24,11.30
2013,05,05,08,25,11.30
2013,05,05,08,26,11.30
2013,05,05,08,27,11.30
2013,05,05,08,28,11.70
2013,05,05,08,29,11.70
2013,05,05,08,30,11.70
2013,05,05,08,31,11.70
2013,05,05,08,32,11.70
2013,05,05,08,33,11.70
2013,05,05,08,34,11.70
2013,05,05,08,35,11.70
2013,05,05,08,36,11.70
2013,05,05,08,37,11.70
2013,05,05,08,38,11.70
2013,05,05,08,39,11.70
2013,05,05,08,40,11.70
2013,05,05,08,41,11.70
2013,05,05,08,42,11.70
2013,05,05,08,43,11.80
2013,05,05,08,44,11.80
2013,05,05,08,45,11.80
2013,05,05,08,46,11.80
2013,05,05,08,47,11.80
2013,05,05,08,48,11.80
2013,05,05,08,49,11.80
2013,05,05,08,50,11.80
2013,05,05,08,51,11.80
2013,05,05,08,52,11.80
2013,05,05,08,53,11.80
2013,05,05,08,54,11.80
2013,05,05,08,55,11.80
2013,05,05,08,56,11.80
2013,05,05,08,57,11.80
2013,05,05,08,58,12.20
2013,05,05,08,59,12.20
2013,05,05,09,00,12.20
2013,05,05,09,01,12.20
2013,05,05,09,02,12.20
2013,05,05,09,03,12.20
2013,05,05,09,04,12.20
2013,05,05,09,05,12.20
2013,05,05,09,06,12.20
2013,05,05,09,07,12.20
2013,05,05,09,08,12.20
2013,05,05,09,09,12.20
2013,05,05,09,10,12.20
2013,05,05,09,11,12.20
2013,05,05,09,12,12.20
2013,05,05,09,13,12.30
2013,05,05,09,14,12.30
2013,05,05,09,15,12.30
2013,05,05,09,16,12.30
2013,05,05,09,17,12.30
2013,05,05,09,18,12.30
2013,05,05,09,19,12.30
2013,05,05,09,20,12.30
2013,05,05,09,21,12.30
2013,05,05,09,22,12.30
2013,05,05,09,23,12.30
2013,05,05,09,24,12.30
2013,05,05,09,25,12.30
2013,05,05,09,26,12.30
2013,05,05,09,27,12.30
2013,05,05,09,28,12.50
2013,05,05,09,29,12.50
2013,05,05,09,30,12.50
2013,05,05,09,31,12.50
2013,05,05,09,32,12.50
2013,05,05,09,33,12.50
2013,05,05,09,34,12.50
2013,05,05,09,35,12.50
2013,05,05,09,36,12.50
2013,05,05,09,37,12.50
2013,05,05,09,38,12.50
2013,05,05,09,39,12.50
2013,05,05,09,40,12.50
2013,05,05,09,41,12.50
2013,05,05,09,42,12.50
2013,05,05,09,43,13.70
2013,05,05,09,44,13.70
2013,05,05,09,45,13.70
2013,05,05,09,46,13.70
2013,05,05,09,47,13.70
2013,05,05,09,48,13.70
2013,05,05,09,49,13.70
2013,05,05,09,50,13.70
2013,05,05,09,51,13.70
2013,05,05,09,52,13.70
2013,05,05,09,53,13.70
2013,05,05,09,54,13.70
2013,05,05,09,55,13.70
2013,05,05,09,56,13.70
2013,05,05,09,57,13.70
2013,05,05,09,58,14.30
2013,05,05,09,59,14.30
2013,05,05,10,00,14.30
2013,05,05,10,01,14.30
2013,05,05,10,02,14.30
2013,05,05,10,03,14.30
2013,05,05,10,04,14.30
2013,05,05,10,05,14.30
2013,05,05,10,06,14.30
2013,05,05,10,07,14.30
2013,05,05,10,08,14.30
2013,05,05,10,09,14.30
2013,05,05,10,10,14.30
2013,05,05,10,11,14.30
2013,05,05,10,12,14.30
2013,05,05,10,13,14.10
2013,05,05,10,14,14.10
2013,05,05,10,15,14.10
2013,05,05,10,16,14.10
2013,05,05,10,17,14.10
2013,05,05,10,18,14.10
2013,05,05,10,19,14.10
2013,05,05,10,20,14.10
2013,05,05,10,21,14.10
2013,05,05,10,22,14.10
2013,05,05,10,23,14.10
2013,05,05,10,24,14.10
2013,05,05,10,25,14.10
2013,05,05,10,26,14.10
2013,05,05,10,27,14.10
2013,05,05,10,28,14.40
2013,05,05,10,29,14.40
2013,05,05,10,30,14.40
2013,05,05,10,31,14.40
2013,05,05,10,32,14.40
2013,05,05,10,33,14.40
2013,05,05,10,34,14.40
2013,05,05,10,35,14.40
2013,05,05,10,36,14.40
2013,05,05,10,37,14.40
2013,05,05,10,38,14.40
2013,05,05,10,39,14.40
2013,05,05,10,40,14.40
2013,05,05,10,41,14.40
2013,05,05,10,42,14.40
2013,05,05,10,43,14.60
2013,05,05,10,44,14.60
2013,05,05,10,45,14.60
2013,05,05,10,46,14.60
2013,05,05,10,47,14.60
2013,05,05,10,48,14.60
2013,05,05,10,49,14.60
2013,05,05,10,50,14.60
2013,05,05,10,51,14.60
2013,05,05,10,52,14.60
2013,05,05,10,53,14.60
2013,05,05,10,54,14.60
2013,05,05,10,55,14.60
2013,05,05,10,56,14.60
2013,05,05,10,57,14.60
2013,05,05,10,58,14.70
2013,05,05,10,59,14.70
2013,05,05,11,00,14.70
2013,05,05,11,01,14.70
2013,05,05,11,02,14.70
2013,05,05,11,03,14.70
2013,05,05,11,04,14.70
2013,05,05,11,05,14.70
2013,05,05,11,06,14.70
2013,05,05,11,07,14.70
2013,05,05,11,08,14.70
2013,05,05,11,09,14.70
2013,05,05,11,10,14.70
2013,05,05,11,11,14.70
2013,05,05,11,12,14.70
2013,05,05,11,13,14.90
2013,05,05,11,14,14.90
2013,05,05,11,15,14.90
2013,05,05,11,16,14.90
2013,05,05,11,17,14.90
2013,05,05,11,18,14.90
2013,05,05,11,19,14.90
2013,05,05,11,20,14.90
2013,05,05,11,21,14.90
2013,05,05,11,22,14.90
2013,05,05,11,23,14.90
2013,05,05,11,24,14.90
2013,05,05,11,25,14.90
2013,05,05,11,26,14.90
2013,05,05,11,27,14.90
2013,05,05,11,28,14.70
2013,05,05,11,29,14.70
2013,05,05,11,30,14.70
2013,05,05,11,31,14.70
2013,05,05,11,32,14.70
2013,05,05,11,33,14.70
2013,05,05,11,34,14.70
2013,05,05,11,35,14.70
2013,05,05,11,36,14.70
2013,05,05,11,37,14.70
2013,05,05,11,38,14.70
2013,05,05,11,39,14.70
2013,05,05,11,40,14.70
2013,05,05,11,41,14.70
2013,05,05,11,42,14.70
2013,05,05,11,43,14.70
2013,05,05,11,44,14.70
2013,05,05,11,45,14.70
2013,05,05,11,46,14.70
2013,05,05,11,47,14.70
2013,05,05,11,48,14.70
2013,05,05,11,49,14.70
2013,05,05,11,50,14.70
2013,05,05,11,51,14.70
2013,05,05,11,52,14.70
2013,05,05,11,53,14.70
2013,05,05,11,54,14.70
2013,05,05,11,55,14.70
2013,05,05,11,56,14.70
2013,05,05,11,57,14.70
2013,05,05,11,58,14.80
2013,05,05,11,59,14.80
2013,05,05,12,00,14.80
2013,05,05,12,01,14.80
2013,05,05,12,02,14.80
2013,05,05,12,03,14.80
2013,05,05,12,04,14.80
2013,05,05,12,05,14.80
2013,05,05,12,06,14.80
2013,05,05,12,07,14.80
2013,05,05,12,08,14.80
2013,05,05,12,09,14.80
2013,05,05,12,10,14.80
2013,05,05,12,11,14.80
2013,05,05,12,12,14.80
2013,05,05,12,13,14.70
2013,05,05,12,14,14.70
2013,05,05,12,15,14.70
2013,05,05,12,16,14.70
2013,05,05,12,17,14.70
2013,05,05,12,18,14.70
2013,05,05,12,19,14.70
2013,05,05,12,20,14.70
2013,05,05,12,21,14.70
2013,05,05,12,22,14.70
2013,05,05,12,23,14.70
2013,05,05,12,24,14.70
2013,05,05,12,25,14.70
2013,05,05,12,26,14.70
2013,05,05,12,27,14.70
2013,05,05,12,28,14.80
2013,05,05,12,29,14.80
2013,05,05,12,30,14.80
2013,05,05,12,31,14.80
2013,05,05,12,32,14.80
2013,05,05,12,33,14.80
2013,05,05,12,34,14.80
2013,05,05,12,35,14.80
2013,05,05,12,36,14.80
2013,05,05,12,37,14.80
2013,05,05,12,38,14.80
2013,05,05,12,39,14.80
2013,05,05,12,40,14.80
2013,05,05,12,41,14.80
2013,05,05,12,42,14.80
2013,05,05,12,43,14.60
2013,05,05,12,44,14.60
2013,05,05,12,45,14.60
2013,05,05,12,46,14.60
2013,05,05,12,47,14.60
2013,05,05,12,48,14.60
2013,05,05,12,49,14.60
2013,05,05,12,50,14.60
2013,05,05,12,51,14.60
2013,05,05,12,52,14.60
2013,05,05,12,53,14.60
2013,05,05,12,54,14.60
2013,05,05,12,55,14.60
2013,05,05,12,56,14.60
2013,05,05,12,57,14.60
2013,05,05,12,58,14.90
2013,05,05,12,59,14.90
2013,05,05,13,00,14.90
2013,05,05,13,01,14.90
2013,05,05,13,02,14.90
2013,05,05,13,03,14.90
2013,05,05,13,04,14.90
2013,05,05,13,05,14.90
2013,05,05,13,06,14.90
2013,05,05,13,07,14.90
2013,05,05,13,08,14.90
2013,05,05,13,09,14.90
2013,05,05,13,10,14.90
2013,05,05,13,11,14.90
2013,05,05,13,12,14.90
2013,05,05,13,13,14.70
2013,05,05,13,14,14.70
2013,05,05,13,15,14.70
2013,05,05,13,16,14.70
2013,05,05,13,17,14.70
2013,05,05,13,18,14.70
2013,05,05,13,19,14.70
2013,05,05,13,20,14.70
2013,05,05,13,21,14.70
2013,05,05,13,22,14.70
2013,05,05,13,23,14.70
2013,05,05,13,24,14.70
2013,05,05,13,25,14.70
2013,05,05,13,26,14.70
2013,05,05,13,27,14.70
2013,05,05,13,28,15.50
2013,05,05,13,29,15.50
2013,05,05,13,30,15.50
2013,05,05,13,31,15.50
2013,05,05,13,32,15.50
2013,05,05,13,33,15.50
2013,05,05,13,34,15.50
2013,05,05,13,35,15.50
2013,05,05,13,36,15.50
2013,05,05,13,37,15.50
2013,05,05,13,38,15.50
2013,05,05,13,39,15.50
2013,05,05,13,40,15.50
2013,05,05,13,41,15.50
2013,05,05,13,42,15.50
2013,05,05,13,43,15.60
2013,05,05,13,44,15.60
2013,05,05,13,45,15.60
2013,05,05,13,46,15.60
2013,05,05,13,47,15.60
2013,05,05,13,48,15.60
2013,05,05,13,49,15.60
2013,05,05,13,50,15.60
2013,05,05,13,51,15.60
2013,05,05,13,52,15.60
2013,05,05,13,53,15.60
2013,05,05,13,54,15.60
2013,05,05,13,55,15.60
2013,05,05,13,56,15.60
2013,05,05,13,57,15.60
2013,05,05,13,58,16.20
2013,05,05,13,59,16.20
2013,05,05,14,00,16.20
2013,05,05,14,01,16.20
2013,05,05,14,02,16.20
2013,05,05,14,03,16.20
2013,05,05,14,04,16.20
2013,05,05,14,05,16.20
2013,05,05,14,06,16.20
2013,05,05,14,07,16.20
2013,05,05,14,08,16.20
2013,05,05,14,09,16.20
2013,05,05,14,10,16.20
2013,05,05,14,11,16.20
2013,05,05,14,12,16.20
2013,05,05,14,13,15.70
2013,05,05,14,14,15.70
2013,05,05,14,15,15.70
2013,05,05,14,16,15.70
2013,05,05,14,17,15.70
2013,05,05,14,18,15.70
2013,05,05,14,19,15.70
2013,05,05,14,20,15.70
2013,05,05,14,21,15.70
2013,05,05,14,22,15.70
2013,05,05,14,23,15.70
2013,05,05,14,24,15.70
2013,05,05,14,25,15.70
2013,05,05,14,26,15.70
2013,05,05,14,27,15.70
2013,05,05,14,28,15.80
2013,05,05,14,29,15.80
2013,05,05,14,30,15.80
2013,05,05,14,31,15.80
2013,05,05,14,32,15.80
2013,05,05,14,33,15.80
2013,05,05,14,34,15.80
2013,05,05,14,35,15.80
2013,05,05,14,36,15.80
2013,05,05,14,37,15.80
2013,05,05,14,38,15.80
2013,05,05,14,39,15.80
2013,05,05,14,40,15.80
2013,05,05,14,41,15.80
2013,05,05,14,42,15.80
2013,05,05,14,43,16.30
2013,05,05,14,44,16.30
2013,05,05,14,45,16.30
2013,05,05,14,46,16.30
2013,05,05,14,47,16.30
2013,05,05,14,48,16.30
2013,05,05,14,49,16.30
2013,05,05,14,50,16.30
2013,05,05,14,51,16.30
2013,05,05,14,52,16.30
2013,05,05,14,53,16.30
2013,05,05,14,54,16.30
2013,05,05,14,55,16.30
2013,05,05,14,56,16.30
2013,05,05,14,57,16.30
2013,05,05,14,58,16.40
2013,05,05,14,59,16.40
2013,05,05,15,00,16.40
2013,05,05,15,01,16.40
2013,05,05,15,02,16.40
2013,05,05,15,03,16.40
2013,05,05,15,04,16.40
2013,05,05,15,05,16.40
2013,05,05,15,06,16.40
2013,05,05,15,07,16.40
2013,05,05,15,08,16.40
2013,05,05,15,09,16.40
2013,05,05,15,10,16.40
2013,05,05,15,11,16.40
2013,05,05,15,12,16.40
2013,05,05,15,13,16.30
2013,05,05,15,14,16.30
2013,05,05,15,15,16.30
2013,05,05,15,16,16.30
2013,05,05,15,17,16.30
2013,05,05,15,18,16.30
2013,05,05,15,19,16.30
2013,05,05,15,20,16.30
2013,05,05,15,21,16.30
2013,05,05,15,22,16.30
2013,05,05,15,23,16.30
2013,05,05,15,24,16.30
2013,05,05,15,25,16.30
2013,05,05,15,26,16.30
2013,05,05,15,27,16.30
2013,05,05,15,28,16.40
2013,05,05,15,29,16.40
2013,05,05,15,30,16.40
2013,05,05,15,31,16.40
2013,05,05,15,32,16.40
2013,05,05,15,33,16.40
2013,05,05,15,34,16.40
2013,05,05,15,35,16.40
2013,05,05,15,36,16.40
2013,05,05,15,37,16.40
2013,05,05,15,38,16.40
2013,05,05,15,39,16.40
2013,05,05,15,40,16.40
2013,05,05,15,41,16.40
2013,05,05,15,42,16.40
2013,05,05,15,43,16.50
2013,05,05,15,44,16.50
2013,05,05,15,45,16.50
2013,05,05,15,46,16.50
2013,05,05,15,47,16.50
2013,05,05,15,48,16.50
2013,05,05,15,49,16.50
2013,05,05,15,50,16.50
2013,05,05,15,51,16.50
2013,05,05,15,52,16.50
2013,05,05,15,53,16.50
2013,05,05,15,54,16.50
2013,05,05,15,55,16.50
2013,05,05,15,56,16.50
2013,05,05,15,57,16.50
2013,05,05,15,58,16.90
2013,05,05,15,59,16.90
2013,05,05,16,00,16.90
2013,05,05,16,01,16.90
2013,05,05,16,02,16.90
2013,05,05,16,03,16.90
2013,05,05,16,04,16.90
2013,05,05,16,05,16.90
2013,05,05,16,06,16.90
2013,05,05,16,07,16.90
2013,05,05,16,08,16.90
2013,05,05,16,09,16.90
2013,05,05,16,10,16.90
2013,05,05,16,11,16.90
2013,05,05,16,12,16.90
2013,05,05,16,13,17.30
2013,05,05,16,14,17.30
2013,05,05,16,15,17.30
2013,05,05,16,16,17.30
2013,05,05,16,17,17.30
2013,05,05,16,18,17.30
2013,05,05,16,19,17.30
2013,05,05,16,20,17.30
2013,05,05,16,21,17.30
2013,05,05,16,22,17.30
2013,05,05,16,23,17.30
2013,05,05,16,24,17.30
2013,05,05,16,25,17.30
2013,05,05,16,26,17.30
2013,05,05,16,27,17.30
2013,05,05,16,28,17.40
2013,05,05,16,29,17.40
2013,05,05,16,30,17.40
2013,05,05,16,31,17.40
2013,05,05,16,32,17.40
2013,05,05,16,33,17.40
2013,05,05,16,34,17.40
2013,05,05,16,35,17.40
2013,05,05,16,36,17.40
2013,05,05,16,37,17.40
2013,05,05,16,38,17.40
2013,05,05,16,39,17.40
2013,05,05,16,40,17.40
2013,05,05,16,41,17.40
2013,05,05,16,42,17.40
2013,05,05,16,43,17.10
2013,05,05,16,44,17.10
2013,05,05,16,45,17.10
2013,05,05,16,46,17.10
2013,05,05,16,47,17.10
2013,05,05,16,48,17.10
2013,05,05,16,49,17.10
2013,05,05,16,50,17.10
2013,05,05,16,51,17.10
2013,05,05,16,52,17.10
2013,05,05,16,53,17.10
2013,05,05,16,54,17.10
2013,05,05,16,55,17.10
2013,05,05,16,56,17.10
2013,05,05,16,57,17.10
2013,05,05,16,58,18.60
2013,05,05,16,59,18.60
2013,05,05,17,00,18.60
2013,05,05,17,01,18.60
2013,05,05,17,02,18.60
2013,05,05,17,03,18.60
2013,05,05,17,04,18.60
2013,05,05,17,05,18.60
2013,05,05,17,06,18.60
2013,05,05,17,07,18.60
2013,05,05,17,08,18.60
2013,05,05,17,09,18.60
2013,05,05,17,10,18.60
2013,05,05,17,11,18.60
2013,05,05,17,12,18.60
2013,05,05,17,13,18.80
2013,05,05,17,14,18.80
2013,05,05,17,15,18.80
2013,05,05,17,16,18.80
2013,05,05,17,17,18.80
2013,05,05,17,18,18.80
2013,05,05,17,19,18.80
2013,05,05,17,20,18.80
2013,05,05,17,21,18.80
2013,05,05,17,22,18.80
2013,05,05,17,23,18.80
2013,05,05,17,24,18.80
2013,05,05,17,25,18.80
2013,05,05,17,26,18.80
2013,05,05,17,27,18.80
2013,05,05,17,28,19.10
2013,05,05,17,29,19.10
2013,05,05,17,30,19.10
2013,05,05,17,31,19.10
2013,05,05,17,32,19.10
2013,05,05,17,33,19.10
2013,05,05,17,34,19.10
2013,05,05,17,35,19.10
2013,05,05,17,36,19.10
2013,05,05,17,37,19.10
2013,05,05,17,38,19.10
2013,05,05,17,39,19.10
2013,05,05,17,40,19.10
2013,05,05,17,41,19.10
2013,05,05,17,42,19.10
2013,05,05,17,43,19.00
2013,05,05,17,44,19.00
2013,05,05,17,45,19.00
2013,05,05,17,46,19.00
2013,05,05,17,47,19.00
2013,05,05,17,48,19.00
2013,05,05,17,49,19.00
2013,05,05,17,50,19.00
2013,05,05,17,51,19.00
2013,05,05,17,52,19.00
2013,05,05,17,53,19.00
2013,05,05,17,54,19.00
2013,05,05,17,56,19.00
2013,05,05,17,57,19.00
2013,05,05,17,58,18.80
2013,05,05,17,59,18.80
2013,05,05,18,00,18.80
2013,05,05,18,01,18.80
2013,05,05,18,02,18.80
2013,05,05,18,03,18.80
2013,05,05,18,04,18.80
2013,05,05,18,05,18.80
2013,05,05,18,06,18.80
2013,05,05,18,07,18.80
2013,05,05,18,08,18.80
2013,05,05,18,09,18.80
2013,05,05,18,10,18.80
2013,05,05,18,11,18.80
2013,05,05,18,12,18.80
2013,05,05,18,13,18.80
2013,05,05,18,14,18.80
2013,05,05,18,16,18.80
2013,05,05,18,17,18.80
2013,05,05,18,18,18.80
2013,05,05,18,19,18.80
2013,05,05,18,20,18.80
2013,05,05,18,21,18.80
2013,05,05,18,22,18.80
2013,05,05,18,23,18.80
2013,05,05,18,24,18.80
2013,05,05,18,25,18.80
2013,05,05,18,26,18.80
2013,05,05,18,27,18.80
2013,05,05,18,28,17.70
2013,05,05,18,29,17.70
2013,05,05,18,30,17.70
2013,05,05,18,31,17.70
2013,05,05,18,32,17.70
2013,05,05,18,33,17.70
2013,05,05,18,34,17.70